Weather in Orekhovno

Russia / Pskov Oblast     58°37′08″N   28°58′15″E
temp.,
°C
wind,
m/s
gust,
m/s
humid.,
%
clouds,
%
prec.,
mm/h
press.,
hPa
HPBL,
m
7 july, thu
thu700:00+14sse2292100 0.0 101241
03:00+13wsw1194100 0.1 101116
06:00+13wsw129493 0.0 101085
09:00+17w346887 0.0 1010691
12:00+21w344879 0.1 10101839
15:00+20wsw455094 0.1 10111558
18:00+20sw355285 0.0 1012994
21:00+17wsw3863100 0.0 1013280
8 july, fri
fri800:00+14sw26748 0.0 1014129
03:00+12wsw238999 0.0 101555
06:00+13wsw248967 0.0 1016125
09:00+18w2466100 0.0 1017842
12:00+21wsw345294 0.2 10161690
15:00+21nw235672 0.4 10161011
18:00+21sse225544 0.4 1016913
21:00+17sse237897 0.7 101570
9 july, sat
sat900:00+15s228442 0.0 101543
03:00+12s239357 0.0 101548
06:00+15s248789 0.0 1014134
09:00+18s358320 0.7 1013347
12:00+20ssw356955 2.1 10121114
15:00+21ssw367151 3.7 1010886
18:00+20s368645 3.0 1009677
21:00+16ssw269362 6.3 1009154
10 july, sun
sun1000:00+14s1295100 0.1 100918
03:00+14se249891 0.3 100893
06:00+14sse159878 0.2 1008200
09:00+17ssw2382100 0.6 1008411
12:00+22ssw235253 0.0 10081502
15:00+21ssw236297 0.2 1008802
18:00+21se1170100 1.2 1009760
21:00+17nne1185100 1.4 100911
11 july, mon
mon1100:00+16ene119086 0.0 100915
03:00+15ene1196100 0.0 100911
06:00+15n1196100 0.3 100959
09:00+16se0195100 0.9 1010152
12:00+16ese2295100 0.4 1010198
15:00+15n2499100 4.4 1010214
18:00+15n3699100 4.3 1009268
21:00+16nne4999100 8.5 1008430